Probability
0 0 0 0 0 0 0 0 0 0 0 0 0 0 0 0 0 0 0 0 0 0 0 0 0 0 0 0 0 0 0 0 0 0 0 0 0 0 0 0 0 0 0 0
0 0 0 0 0 0 0 0 0 0 0 0 0 0 0 0 0 0 0 0 0 0 0 0 0 0 0 0 0 0 0 0 0 0 0 0 0 0 0 0 0 0 0 0
0 0 0 0 0 0 0 0 0 0 0 0 0 0 0 0 0 0 0 0 0 0 0 0 0 0 0 0 0 0 0 0 0 0 0 0 0 0 0 0 0 0 0 0
0 0 0 0 0 0 0 0 0 0 0 0 0 0 0 0 0 0 0 0 0 0 0 0 0 0 0 0 0 0 0 0 0 0 0 0 0 0 0 0 0 0 0 0
0 0 0 0 0 0 0 0 0 0 0 0 0 0 0 0 0 0 0 0 0 0 0 0 0 0 0 0 0 0 0 0 0 0 0 0 0 0 0 0 0 0 0 0
0 0 0 0 0 0 0 0 0 0 0 0 0 0 0 0 0 0 0 0 0 0 0 0 0 0 0 0 0 0 0 0 0 0 0 0 0 0 0 0 0 0 0 0
0 0 0 0 0 0 0 0 0 0 0 0 0 0 0 0 0 0 0 0 0 0 0 0 0 0 0 0 0 0 0 0 0 0 0 0 0 0 0 0 0 0 0 0
0 0 0 0 0 0 0 0 0 0 0 0 0 0 0 0 0 0 0 0 0 0 0 0 0 0 0 0 0 0 0 0 0 0 0 0 0 0 0 0 0 0 0 0
0 0 0 0 0 0 0 0 0 0 0 0 0 0 0 0 0 0 0 0 0 0 0 0 0 0 0 0 0 0 0 0 0 0 0 0 0 0 0 0 0 0 0 0
0 0 0 0 0 0 0 0 0 0 0 0 0 0 0 0 0 0 0 0 0 0 0 0 0 0 0 0 0 0 0 0 0 0 0 0 0 0 0 0 0 0 0 0
0 0 0 0 0 0 0 0 0 0 0 0 0 0 0 0 0 0 0 0 0 0 0 0 0 0 0 0 0 0 0 0 0 0 0 0 0 0 0 0 0 0 0 0
0 0 0 0 0 0 0 0 0 0 0 0 0 0 0 0 0 0 0 0 0 0 0 0 0 0 0 0 0 0 0 0 0 0 0 0 0 0 0 0 0 0 0 0
0 0 0 0 0 0 0 0 0 0 0 0 0 0 0 0 0 0 0 0 0 0 0 0 0 0 0 0 0 0 0 0 0 0 0 0 0 0 0 0 0 0 0 0
0 0 0 0 0 0 0 0 0 0 0 0 0 0 0 0 0 0 0 0 0 0 0 0 0 0 0 0 0 0 0 0 0 0 0 0 0 0 0 0 0 0 0 0
0 0 0 0 0 0 0 0 0 0 0 0 0 0 0 0 0 0 0 0 0 0 0 0 0 0 0 0 0 0 0 0 0 0 0 0 0 0 0 0 0 0 0 0
0 0 0 0 0 0 0 0 0 0 0 0 0 0 0 0 0 0 0 0 0 0 0 0 0 0 0 0 0 0 0 0 0 0 0 0 0 0 0 0 0 0 0 0
0 0 0 0 0 0 0 0 0 0 0 0 0 0 0 0 0 0 0 0 0 0 0 0 0 0 0 0 0 0 0 0 0 0 0 0 0 0 0 0 0 0 0 0
0 0 0 0 0 0 0 0 0 0 0 0 0 0 0 0 0 0 0 0 0 0 0 0 0 0 0 0 0 0 0 0 0 0 0 0 0 0 0 0 0 0 0 0
0 0 0 0 0 0 0 0 0 0 0 0 0 0 0 0 0 0 0 0 0 0 0 0 0 0 0 0 0 0 0 0 0 0 0 0 0 0 0 0 0 0 0 0
0 0 0 0 0 0 0 0 0 0 0 0 0 0 0 0 0 0 0 0 0 0 0 0 0 0 0 0 0 0 0 0 0 0 0 0 0 0 0 0 0 0 0 0
0 0 0 0 0 0 0 0 0 0 0 0 0 0 0 0 0 0 0 0 0 0 0 0 0 0 0 0 0 0 0 0 0 0 0 0 0 0 0 0 0 0 0 0
0 0 0 0 0 0 0 0 0 0 0 0 0 0 0 0 0 0 0 0 0 0 0 0 0 0 0 0 0 0 0 0 0 0 0 0 0 0 0 0 0 0 0 0
0 0 0 0 0 0 0 0 0 0 0 0 0 0 0 0 0 0 0 0 0 0 0 0 0 0 0 0 0 0 0 0 0 0 0 0 0 0 0 0 0 0 0 0
0 0 0 0 0 0 0 0 0 0 0 0 0 0 0 0 0 0 0 0 0 0 0 0 0 0 0 0 0 0 0 0 0 0 0 0 0 0 0 0 0 0 0 0
0 0 0 0 0 0 0 0 0 0 0 0 0 0 0 0 0 0 0 0 0 0 0 0 0 0 0 0 0 0 0 0 0 0 0 0 0 0 0 0 0 0 0 0
0 0 0 0 0 0 0 0 0 0 0 0 0 0 0 0 0 0 0 0 0 0 0 0 0 0 0 0 0 0 0 0 0 0 0 0 0 0 0 0 0 0 0 0
0 0 0 0 0 0 0 0 0 0 0 0 0 0 0 0 0 0 0 0 0 0 0 0 0 0 0 0 0 0 0 0 0 0 0 0 0 0 0 0 0 0 0 0
Height
5849 5847 5845 5843 5839 5836 5832 5827 5822 5816 5810 5803 5796 5788 5779 5770 5760 5750 5741 5731 5720 5708 5697 5686 5676 5666 5656 5648 5640 5633 5628 5623 5619 5614 5611 5608 5605 5603 5601 5601 5602 5606 5611 5618
5849 5847 5844 5841 5836 5832 5827 5822 5817 5811 5804 5797 5789 5781 5772 5761 5751 5740 5729 5717 5705 5693 5682 5672 5661 5651 5641 5632 5624 5617 5611 5607 5603 5599 5596 5594 5592 5590 5589 5588 5587 5588 5590 5595
5848 5844 5842 5838 5833 5826 5821 5815 5809 5802 5796 5787 5780 5771 5760 5747 5735 5724 5713 5702 5691 5680 5668 5657 5645 5634 5624 5614 5605 5597 5592 5587 5584 5581 5579 5578 5577 5577 5577 5577 5577 5577 5578 5580
5845 5843 5838 5836 5827 5820 5813 5807 5801 5794 5787 5778 5768 5759 5748 5735 5723 5712 5701 5690 5678 5666 5653 5640 5626 5613 5602 5592 5583 5575 5569 5565 5562 5560 5560 5560 5560 5561 5562 5563 5565 5566 5567 5569
5841 5837 5834 5829 5822 5815 5808 5801 5794 5786 5778 5770 5761 5752 5741 5725 5712 5700 5689 5678 5665 5651 5637 5621 5606 5591 5578 5568 5558 5550 5545 5541 5540 5538 5539 5540 5541 5544 5546 5548 5551 5554 5556 5559
5838 5834 5828 5824 5817 5809 5803 5796 5788 5780 5771 5761 5749 5738 5728 5714 5703 5692 5680 5668 5654 5639 5623 5605 5588 5572 5558 5546 5535 5526 5520 5517 5516 5516 5517 5519 5522 5525 5529 5532 5536 5540 5544 5547
5834 5829 5823 5817 5810 5805 5798 5791 5781 5771 5760 5749 5739 5729 5717 5705 5695 5684 5671 5658 5643 5627 5609 5590 5572 5557 5542 5529 5517 5507 5500 5497 5495 5496 5497 5499 5503 5507 5512 5516 5521 5526 5531 5536
5829 5823 5820 5812 5805 5798 5790 5781 5771 5762 5753 5744 5734 5722 5709 5697 5687 5676 5663 5650 5635 5617 5598 5579 5560 5544 5530 5515 5503 5493 5485 5481 5479 5478 5479 5482 5486 5491 5496 5501 5507 5513 5518 5524
5825 5821 5815 5806 5797 5789 5781 5774 5766 5758 5749 5739 5728 5715 5702 5691 5681 5669 5656 5642 5626 5609 5590 5571 5552 5535 5520 5506 5493 5483 5475 5470 5466 5465 5466 5468 5471 5475 5481 5487 5493 5500 5507 5513
5821 5815 5808 5800 5793 5787 5779 5772 5764 5754 5744 5733 5721 5708 5696 5685 5675 5663 5650 5636 5621 5603 5584 5565 5547 5530 5514 5500 5487 5477 5469 5463 5458 5456 5456 5457 5459 5464 5469 5475 5481 5489 5496 5503
5817 5811 5805 5799 5792 5785 5777 5768 5759 5750 5738 5726 5714 5702 5690 5679 5669 5658 5645 5631 5615 5598 5580 5561 5544 5528 5513 5497 5484 5473 5465 5458 5453 5450 5449 5450 5452 5455 5460 5466 5472 5479 5487 5494
5812 5807 5801 5795 5787 5780 5771 5763 5753 5743 5732 5721 5709 5696 5685 5674 5664 5653 5641 5628 5613 5596 5578 5560 5544 5529 5514 5499 5485 5472 5462 5455 5449 5447 5446 5446 5448 5451 5455 5460 5466 5473 5480 5488
5807 5801 5795 5788 5781 5773 5766 5757 5747 5737 5727 5716 5705 5692 5680 5670 5660 5650 5638 5625 5611 5596 5578 5561 5545 5532 5518 5504 5489 5476 5465 5456 5449 5446 5445 5445 5447 5449 5453 5458 5463 5469 5475 5482
5802 5796 5790 5784 5777 5770 5762 5753 5743 5733 5723 5712 5701 5689 5677 5667 5657 5647 5636 5624 5611 5596 5580 5564 5549 5535 5523 5510 5497 5484 5472 5462 5454 5450 5447 5447 5447 5450 5453 5457 5462 5467 5473 5479
5796 5791 5785 5779 5772 5765 5757 5748 5739 5730 5719 5709 5698 5686 5674 5664 5655 5645 5635 5624 5612 5598 5584 5569 5554 5541 5528 5517 5505 5494 5483 5473 5465 5459 5455 5452 5452 5453 5455 5458 5462 5467 5472 5477
5791 5786 5780 5774 5767 5760 5753 5744 5735 5726 5715 5705 5694 5683 5672 5661 5652 5643 5634 5624 5614 5602 5589 5574 5561 5548 5535 5524 5514 5504 5495 5486 5478 5472 5467 5463 5461 5461 5461 5463 5466 5469 5473 5478
5785 5780 5775 5769 5762 5755 5748 5740 5730 5721 5711 5700 5691 5681 5670 5660 5651 5643 5634 5625 5615 5605 5593 5580 5567 5555 5544 5533 5523 5514 5506 5498 5491 5485 5480 5476 5473 5471 5471 5471 5472 5473 5476 5479
5780 5775 5769 5763 5757 5750 5743 5735 5726 5717 5707 5697 5688 5678 5668 5659 5650 5642 5634 5626 5617 5608 5598 5586 5575 5563 5552 5542 5532 5523 5516 5509 5502 5496 5491 5487 5484 5481 5480 5479 5478 5478 5480 5481
5772 5768 5762 5756 5750 5744 5737 5729 5721 5713 5704 5694 5685 5676 5667 5658 5648 5640 5633 5626 5619 5611 5602 5592 5582 5572 5561 5551 5542 5533 5525 5519 5513 5508 5502 5498 5494 5491 5488 5487 5485 5485 5485 5486
5765 5761 5755 5749 5744 5737 5731 5724 5717 5709 5700 5692 5683 5674 5666 5657 5648 5640 5632 5625 5619 5612 5605 5597 5588 5579 5570 5561 5552 5544 5536 5530 5524 5518 5514 5509 5506 5502 5500 5498 5496 5495 5496 5496
5757 5753 5748 5742 5736 5731 5725 5719 5712 5704 5697 5689 5680 5672 5664 5655 5647 5639 5632 5625 5619 5613 5607 5601 5593 5586 5577 5569 5562 5555 5548 5541 5535 5529 5525 5521 5518 5515 5513 5511 5509 5509 5509 5509
5749 5745 5740 5735 5730 5724 5719 5713 5706 5699 5692 5685 5677 5670 5662 5654 5646 5637 5630 5624 5619 5613 5608 5603 5597 5590 5583 5576 5570 5564 5558 5552 5546 5541 5536 5533 5531 5528 5526 5524 5523 5522 5522 5522
5740 5736 5733 5728 5723 5717 5712 5706 5700 5693 5687 5681 5674 5666 5659 5652 5644 5637 5629 5623 5617 5612 5608 5604 5599 5593 5588 5582 5577 5572 5567 5562 5557 5552 5548 5544 5542 5540 5538 5536 5535 5534 5534 5534
5731 5727 5724 5720 5715 5709 5704 5699 5693 5687 5681 5675 5668 5662 5655 5648 5641 5634 5627 5620 5615 5610 5607 5603 5600 5595 5591 5586 5582 5578 5573 5569 5565 5561 5558 5555 5552 5550 5548 5547 5546 5545 5545 5545
5722 5716 5713 5709 5705 5700 5695 5691 5685 5680 5674 5668 5662 5656 5650 5644 5638 5632 5625 5618 5612 5608 5604 5601 5599 5596 5592 5589 5585 5582 5578 5575 5572 5569 5566 5564 5561 5559 5557 5556 5555 5554 5554 5554
5712 5707 5703 5699 5695 5690 5686 5682 5678 5673 5668 5663 5657 5651 5645 5640 5634 5628 5622 5616 5610 5605 5602 5599 5597 5595 5593 5590 5587 5584 5581 5579 5576 5574 5572 5571 5569 5567 5565 5564 5564 5563 5563 5563
5702 5698 5694 5690 5685 5681 5677 5674 5669 5665 5661 5656 5651 5646 5640 5635 5630 5625 5619 5613 5607 5602 5599 5596 5594 5593 5591 5590 5587 5585 5583 5581 5579 5578 5576 5575 5574 5572 5571 5570 5570 5570 5570 5570
Wind_Speed
13 14 15 15 18 22 25 28 31 33 36 39 42 45 48 52 56 59 62 65 66 66 65 63 62 61 60 58 57 55 53 51 49 47 45 43 42 40 41 45 53 61 68 72
16 17 18 19 22 26 28 29 29 32 36 40 43 46 50 54 57 60 61 60 58 57 56 57 58 58 59 58 57 57 55 53 51 48 46 43 40 37 36 35 37 41 47 55
18 21 22 23 27 29 30 31 33 37 41 44 47 49 54 58 61 60 56 54 54 56 58 59 60 60 60 60 59 59 58 56 53 51 48 46 43 41 38 35 33 32 33 36
22 24 26 28 30 33 35 36 38 41 44 48 51 54 57 59 57 53 52 53 55 58 60 62 63 63 62 61 61 60 58 56 55 53 51 49 47 44 41 38 36 33 31 30
25 27 28 31 34 36 37 39 41 44 46 49 52 54 55 54 52 51 52 55 58 60 64 66 66 65 64 63 61 59 57 54 52 52 51 50 48 46 44 42 39 36 35 34
25 28 31 34 37 39 39 39 41 45 48 52 55 57 56 52 49 49 52 56 59 63 65 66 64 62 60 58 56 53 50 48 47 47 47 48 47 46 45 44 42 39 36 35
27 30 33 37 40 40 39 40 43 48 53 56 57 59 56 50 48 50 53 57 61 64 65 64 61 58 56 54 51 47 44 42 41 42 43 44 45 43 43 43 42 40 38 36
29 32 35 38 40 41 41 43 46 51 54 55 56 56 52 48 48 51 54 58 61 64 65 63 60 56 53 50 46 41 37 35 35 35 37 38 40 40 40 40 40 39 37 36
29 32 35 38 42 44 44 45 47 51 53 53 55 55 49 46 48 51 54 58 61 64 64 62 58 54 51 46 42 36 31 28 26 27 29 31 32 34 35 37 38 37 35 34
27 31 35 39 41 42 42 43 46 51 52 52 54 53 48 45 47 50 54 57 61 64 64 60 56 53 51 47 42 35 30 26 22 20 21 23 26 27 29 31 33 34 34 33
26 30 34 36 38 40 40 42 46 50 51 52 54 52 47 45 47 50 53 56 60 63 63 59 54 52 51 48 43 36 29 25 20 16 14 15 17 20 22 25 28 30 31 31
28 31 34 35 38 40 41 43 47 51 51 51 53 52 47 45 46 49 51 54 58 61 62 58 53 50 51 50 47 40 32 25 18 13 9 9 11 14 17 20 24 26 29 30
29 32 34 35 39 41 42 44 47 51 51 50 52 51 47 45 45 47 50 52 56 60 60 58 52 48 49 50 49 44 37 28 20 12 6 5 6 10 13 16 20 23 26 28
31 32 33 35 38 41 42 44 46 50 50 49 51 50 47 45 44 46 48 50 53 57 59 58 53 48 46 47 48 47 41 34 26 18 10 4 1 6 10 13 16 19 22 25
31 32 32 34 38 41 43 44 46 49 49 47 49 50 48 45 43 44 46 47 50 53 56 56 54 50 45 43 44 45 43 39 33 27 21 15 10 7 7 10 13 16 19 22
32 32 33 35 38 41 44 44 45 48 49 47 48 49 49 46 43 42 43 44 46 50 52 54 54 52 47 42 40 40 40 38 35 32 29 25 21 16 12 10 11 13 15 18
32 32 33 35 38 40 43 44 45 48 49 48 47 48 49 47 43 40 40 42 43 46 48 50 52 52 49 44 39 38 37 36 34 31 29 27 24 21 17 14 11 10 11 14
31 32 34 36 38 41 43 44 45 47 49 48 47 47 47 46 43 39 38 38 39 41 44 46 48 50 49 46 40 35 34 34 32 29 27 26 24 21 19 16 13 11 10 11
32 34 36 38 40 42 43 45 45 47 48 48 46 46 46 45 44 40 36 36 36 37 39 41 43 45 47 47 44 37 32 30 29 28 27 26 25 24 22 21 19 18 18 17
34 35 37 39 41 43 44 45 45 46 47 47 45 45 45 44 42 40 35 33 34 34 35 36 38 40 41 43 43 39 34 29 27 26 26 26 26 26 26 27 26 26 26 26
35 37 39 41 43 44 45 45 46 45 46 46 45 43 43 43 42 39 35 30 30 30 31 32 32 34 36 38 38 37 34 31 28 26 26 26 27 28 28 28 29 29 29 30
37 39 41 43 44 45 46 46 46 45 45 45 44 42 41 40 41 40 36 31 27 27 27 28 28 29 30 32 33 33 31 30 28 26 25 25 26 27 28 28 28 28 28 29
39 42 43 44 45 46 47 47 46 45 44 44 42 41 39 38 38 37 36 32 27 24 24 24 25 25 24 25 26 28 27 26 25 24 23 23 23 24 25 26 26 26 26 26
44 46 47 46 46 47 47 46 45 44 44 44 42 40 38 37 37 37 35 32 28 23 21 21 22 21 20 20 20 22 23 23 23 23 21 20 20 21 22 24 25 25 26 26
46 48 48 47 47 48 46 44 43 42 42 41 41 39 37 36 35 35 35 33 29 24 20 19 18 18 17 16 15 16 17 18 19 20 20 19 19 19 19 20 21 23 24 24
45 45 46 47 47 46 43 41 40 39 39 39 38 38 36 34 33 33 33 32 29 24 19 17 15 15 15 13 11 10 11 12 14 16 16 17 16 17 17 18 18 19 21 21
42 42 43 45 44 42 39 38 37 37 37 37 37 36 34 33 32 31 32 31 29 25 20 16 14 12 12 10 8 6 6 7 8 10 11 12 12 13 14 14 15 15 16 17
Wind_Direction
348 347 345 337 328 324 323 324 325 325 325 325 326 325 324 323 321 319 318 316 313 311 310 309 307 305 302 299 297 294 292 291 290 289 288 287 286 284 277 266 258 252 249 247
354 351 349 343 337 331 328 327 327 328 328 329 328 327 325 323 321 320 319 318 318 317 315 313 310 306 302 299 296 293 290 288 286 284 281 280 280 278 276 272 265 258 252 248
354 348 346 343 337 333 332 333 334 334 333 331 330 330 329 327 325 325 324 324 322 320 317 314 311 307 302 297 293 290 287 284 282 278 275 273 272 272 270 267 264 261 257 253
349 343 345 341 339 338 337 337 337 336 335 333 333 333 332 328 326 326 327 327 326 324 322 318 313 308 303 298 294 290 285 281 278 275 271 269 267 266 265 263 260 258 256 256
341 340 339 341 342 341 339 339 337 336 336 334 333 334 333 329 329 330 331 330 329 327 325 322 317 312 308 303 298 292 286 280 276 273 269 266 263 261 259 258 257 255 253 254
333 335 339 341 342 342 340 339 337 336 335 336 337 337 336 333 332 333 333 333 333 331 329 326 322 318 315 311 306 299 291 283 275 270 267 264 261 258 255 254 253 252 250 250
331 336 338 340 341 340 339 339 338 339 339 340 340 337 335 333 334 335 337 338 338 336 334 332 329 325 321 317 312 306 297 287 278 271 266 262 258 255 252 250 249 248 247 247
332 335 337 337 338 341 341 341 341 341 339 339 339 337 336 335 337 339 341 342 342 342 340 338 335 332 329 325 321 314 305 294 283 274 267 262 258 253 250 247 245 243 243 242
329 330 332 338 342 343 342 342 340 339 338 340 340 339 337 336 338 341 343 345 346 347 346 344 342 340 338 336 332 326 317 307 292 279 269 261 257 252 247 244 241 239 237 235
323 328 337 341 341 340 339 338 337 338 339 341 342 341 338 338 341 343 346 348 349 351 351 351 351 351 350 347 343 338 331 321 305 289 275 264 254 248 243 239 235 232 230 228
327 334 338 338 338 338 338 338 338 340 342 343 344 343 340 340 343 345 348 351 352 354 356 357 358 359 359 357 353 347 339 330 320 302 284 266 251 241 235 230 227 225 222 220
332 335 336 337 337 339 339 339 340 342 344 345 345 345 343 342 345 348 351 353 355 358 360 1 2 3 5 6 4 0 353 344 334 316 292 266 244 231 224 219 217 216 214 213
331 335 337 337 338 340 340 340 341 343 344 346 346 346 344 344 346 349 353 356 358 1 3 5 6 7 8 11 12 12 11 8 1 349 323 281 238 220 212 210 209 207 207 208
331 334 336 336 338 339 340 341 342 344 345 347 348 348 346 345 346 349 354 358 0 3 6 9 10 10 10 13 17 19 21 23 25 25 23 18 205 197 197 197 199 202 203 203
330 333 334 335 337 339 341 342 343 344 346 347 349 349 348 347 347 349 354 360 2 5 9 12 13 13 13 15 19 23 27 31 36 42 46 55 73 110 152 174 184 188 192 194
327 331 333 335 337 339 341 342 343 345 346 348 350 351 350 349 349 350 354 359 4 7 10 14 16 17 17 18 20 24 29 34 40 46 53 59 66 79 96 121 149 167 179 186
325 329 331 334 335 337 340 342 344 345 347 348 349 351 351 351 350 350 353 358 3 7 11 14 17 19 19 19 21 25 29 34 40 45 50 56 62 71 80 93 111 135 159 176
323 326 329 332 334 336 339 342 344 345 347 347 348 350 351 351 351 350 352 357 3 7 11 15 18 20 21 21 21 24 27 32 37 42 46 51 57 63 71 79 92 107 127 149
321 324 326 329 332 335 338 341 343 344 345 346 347 348 350 351 351 350 349 353 360 5 11 16 18 20 22 24 25 27 31 34 38 43 48 53 57 62 68 75 84 93 102 114
317 320 322 326 330 333 336 338 340 342 343 344 345 346 348 350 351 350 348 349 355 1 8 14 18 21 23 25 27 31 35 40 45 50 55 59 65 71 77 81 86 92 97 103
314 317 321 325 327 330 332 334 337 338 340 341 342 343 345 348 350 351 349 346 349 355 3 9 15 20 25 27 29 32 37 42 50 58 64 70 75 80 85 88 91 95 99 103
312 316 319 321 323 325 328 330 332 334 336 338 339 340 342 346 349 350 350 347 345 349 356 3 9 16 23 29 31 34 38 44 52 61 70 78 83 85 86 88 90 95 100 103
310 313 314 315 317 320 323 325 327 329 331 333 335 336 339 342 346 349 349 348 343 342 348 356 3 10 18 26 31 35 38 44 51 59 69 79 85 85 85 86 88 92 97 102
308 308 309 310 312 314 317 321 322 324 326 328 331 333 336 339 342 346 348 348 344 339 340 346 355 3 11 19 29 36 41 46 52 58 66 75 81 83 84 84 87 91 94 98
305 305 307 308 309 311 314 316 317 319 321 324 327 329 332 335 338 342 345 347 345 339 335 337 345 354 2 11 22 35 44 49 53 59 65 72 79 84 85 85 88 91 95 97
302 301 303 305 308 309 310 311 312 314 317 321 324 326 328 331 334 338 342 345 345 339 333 329 332 342 352 2 12 27 42 53 58 63 68 72 78 83 87 89 91 95 97 99
298 298 301 304 305 306 308 308 308 311 315 319 322 323 324 327 330 334 339 341 343 341 333 325 320 324 334 345 356 12 39 58 60 62 73 75 79 84 89 95 99 102 105 107